sat.trackr.live / text

‹ back to catalog

GEESAT-1 08

NORAD 52792 · 2022-058H

PAYLOAD ACTIVE UNKNOWN

§ Identity

Operator
Country
PRC
Launch date
2022-06-02
Launch site
XICLF
Launch vehicle
Mass (kg)
RCS (m²)

External: N2YO · Heavens-Above · Gunter

§ Orbital elements

Epoch: 2026-09-20T23:02:18.246624Z

Period
97.19 min
Inclination
49.9929°
Eccentricity
0.0019428
Mean motion
14.81609202 rev/d
Perigee alt
610.6 km
Apogee alt
637.9 km
Semi-major
7,002.4 km
B*
1.2517e-4
RAAN
119.1629°
Arg perigee
297.4483°
Mean anomaly
62.4479°
Rev number
23,413

§ Raw data

GEESAT-1 081 52792U 22058H   26263.95993341  .00000770  00000+0  12517-3 0  99962 52792  49.9929 119.1629 0019428 297.4483  62.4479 14.81609202234137

JSON: /api/v1/satellites/52792 · /tle

For live sub-satellite position, see the globe view (requires WebGL).

§ Visibility from observer

Set your observer location to see the next 7 days of passes ≥ 10°. The values pass through the URL so the page stays shareable.

No JS? Fill the form by hand. The geolocation button needs JavaScript.